Tracking 19293 objects as of 20-Nov-2018
HD Live streaming from Space Station
objects crossing your sky now

COSMOS 718

Track COSMOS 718 now!
10-day predictions
COSMOS 718 is classified as:


NORAD ID: 7685
Int'l Code: 1975-016H
Perigee: 1,435.1 km
Apogee: 1,496.9 km
Inclination: 74.0 °
Period: 115.1 minutes
Semi major axis: 7836 km
RCS: 0.6831 m2 (medium)
Launch date: February 28, 1975
Source: Commonwealth of Independent States (former USSR) (CIS)
Launch site: PLESETSK MISSILE AND SPACE COMPLEX (PKMTR)
aabbcc
Your satellite tracking list
Your tracking list is empty




NASA's NSSDC Master Catalog

Two Line Element Set (TLE):
1  7685U 75016H   18324.46917448 -.00000008  00000-0  50216-4 0  9993
2  7685  74.0025 309.9875 0039432 227.2497 252.5604 12.51349520997642
Source of the keplerian elements: AFSPC